Location: Poughquag
(41.6090°N, 73.6820°W)
Time: 14:40:23
(UTC-04:00)

Altair - Pass Details

Date: 07 June 2020
Orbit: 1501 x 1683 km, 47.2° (Epoch: 05 July)

Event Time Altitude Azimuth Distance (km) Brightness Sun altitude
Rises 23:28:15 0° 274° (W) 4,839 10.4 -22.5°
Reaches altitude 10° 23:31:24 10° 278° (W) 3,875 9.9 -22.7°
Maximum altitude 23:41:19 64° 359° (N) 1,823 8.0 -23.4°
Drops below altitude 10° 23:51:26 10° 80° (E) 3,947 9.6 -23.9°
Sets 23:54:40 0° 84° (E) 4,933 10.1 -24.1°
